M0CJS Weather Reports


Display with metric or nautical units.
time (UTC)temp
F
wind
direction
speed
MPH
gust
MPH
rain 1hr
in
rain 24hr
in
rain mn
in
humidity
%
barometer
mb
20260902071517 59 135 1.0 4.0 0.01 0.01 0.01 97 1020.0
20260902070537 59 203 1.0 4.0 0.01 0.01 0.01 97 1020.0
20260902065517 59 203 2.0 6.0 0.01 0.01 0.01 96 1019.9
20260902064517 59 225 1.0 3.0 0.01 0.01 0.01 96 1019.9
20260902063517 58 158 1.0 6.0 0.01 0.01 0.01 97 1019.8
20260902062517 58 158 1.0 4.0 0.00 0.00 0.00 96 1019.9
20260902061537 58 180 1.0 4.0 0.00 0.00 0.00 96 1020.0
20260902060517 58 180 1.0 5.0 0.00 0.00 0.00 96 1019.9
20260902055517 58 225 3.0 6.0 0.00 0.00 0.00 95 1019.7
20260902054517 58 203 3.0 7.0 0.00 0.00 0.00 95 1019.6
20260902053517 58 203 4.0 8.0 0.00 0.00 0.00 94 1019.5
20260902052517 58 203 5.0 10.0 0.00 0.00 0.00 94 1019.6
20260902051517 58 203 3.0 6.0 0.00 0.00 0.00 93 1019.7
20260902050537 58 203 3.0 5.0 0.00 0.00 0.00 93 1019.7
20260902045517 58 203 2.0 6.0 0.00 0.00 0.00 92 1019.6
20260902044517 58 203 3.0 8.0 0.00 0.00 0.00 92 1019.8
20260902043617 58 203 3.0 7.0 0.00 0.00 0.00 92 1019.9
20260902042536 58 203 3.0 7.0 0.00 0.00 0.00 92 1019.8
20260902041537 58 203 3.0 7.0 0.00 0.00 0.00 91 1019.8
20260902040536 58 225 3.0 6.0 0.00 0.00 0.00 91 1019.9
20260902035536 58 225 2.0 6.0 0.00 0.00 0.00 91 1019.9
20260902034536 57 203 3.0 5.0 0.00 0.00 0.00 91 1020.0
20260902033516 57 203 1.0 3.0 0.00 0.00 0.00 91 1019.8
20260902032516 57 203 1.0 3.0 0.00 0.00 0.00 90 1019.9
20260902031516 57 0.0 3.0 0.00 0.00 0.00 91 1020.1
20260902030516 57 0.0 0.0 0.00 0.00 0.00 90 1020.2
20260902025556 57 0.0 0.0 0.00 0.00 0.00 91 1020.3
20260902024517 57 0.0 0.0 0.00 0.00 0.00 91 1020.4
20260902023516 57 0.0 1.0 0.00 0.00 0.00 90 1020.5
20260902022516 57 203 1.0 6.0 0.00 0.00 0.00 89 1020.4
20260902021516 57 225 2.0 4.0 0.00 0.00 0.00 89 1020.4
20260902020516 57 203 2.0 4.0 0.00 0.00 0.00 89 1020.4
20260902015536 58 203 3.0 7.0 0.00 0.00 0.00 88 1020.5
20260902014516 58 203 3.0 8.0 0.00 0.00 0.00 88 1020.5
20260902013536 58 225 4.0 6.0 0.00 0.00 0.00 88 1020.5
20260902012518 58 203 4.0 6.0 0.00 0.00 0.00 88 1020.4
20260902011516 58 203 3.0 6.0 0.00 0.00 0.00 87 1020.5
20260902010536 58 203 5.0 9.0 0.00 0.00 0.00 86 1020.6
20260902005516 58 203 5.0 9.0 0.00 0.00 0.00 86 1020.7
20260902004516 58 203 4.0 7.0 0.00 0.00 0.00 86 1020.9
20260902003536 59 203 4.0 7.0 0.00 0.00 0.00 85 1020.9
20260902002516 59 203 4.0 7.0 0.00 0.00 0.00 85 1021.0
20260902001516 59 203 4.0 9.0 0.00 0.00 0.00 85 1021.0
20260902000541 59 203 4.0 9.0 0.00 0.00 0.00 84 1020.9
20260901235516 60 203 3.0 8.0 0.00 0.00 0.00 83 1020.8
20260901234516 60 203 4.0 7.0 0.00 0.00 0.00 83 1020.8
20260901233516 60 225 4.0 10.0 0.00 0.00 0.00 83 1020.7
20260901232519 60 203 4.0 10.0 0.00 0.00 0.00 83 1020.9
20260901231516 60 203 2.0 5.0 0.00 0.00 0.00 82 1021.0
20260901230559 60 203 3.0 7.0 0.00 0.00 0.00 83 1020.9
20260901225516 61 225 4.0 10.0 0.00 0.00 0.00 82 1021.2
20260901224518 61 225 2.0 4.0 0.00 0.00 0.00 81 1021.1
20260901223538 61 225 3.0 8.0 0.00 0.00 0.00 81 1021.2
20260901222516 61 225 3.0 8.0 0.00 0.00 0.00 80 1021.0
20260901221516 61 225 2.0 8.0 0.00 0.00 0.00 80 1021.2
20260901220516 61 225 1.0 5.0 0.00 0.00 0.00 80 1021.1
20260901215516 62 248 1.0 4.0 0.00 0.00 0.00 80 1021.2
20260901214536 62 225 3.0 8.0 0.00 0.00 0.00 80 1021.3
20260901213536 62 203 4.0 7.0 0.00 0.00 0.00 80 1021.2
20260901212537 62 203 3.0 7.0 0.00 0.00 0.00 81 1021.3
20260901211536 62 203 3.0 6.0 0.00 0.00 0.00 80 1021.3
20260901210518 62 203 3.0 6.0 0.00 0.00 0.00 80 1021.3
20260901205517 62 225 3.0 6.0 0.00 0.00 0.00 80 1021.3
20260901204516 62 225 4.0 8.0 0.00 0.00 0.00 79 1021.1
20260901203538 62 225 3.0 6.0 0.00 0.00 0.00 78 1021.0
20260901202517 63 225 2.0 7.0 0.00 0.00 0.00 78 1021.0
20260901201517 63 203 3.0 7.0 0.00 0.00 0.00 77 1021.0
20260901200517 63 225 1.0 2.0 0.00 0.00 0.00 77 1021.0
20260901195518 63 270 1.0 3.0 0.00 0.00 0.00 76 1020.9
20260901194518 63 270 3.0 6.0 0.00 0.00 0.00 76 1020.8
20260901193517 64 248 2.0 6.0 0.00 0.00 0.00 78 1020.9
20260901192519 64 270 4.0 9.0 0.00 0.00 0.00 77 1021.0
20260901191517 64 270 3.0 7.0 0.00 0.00 0.00 77 1020.9
20260901190518 64 248 3.0 8.0 0.00 0.00 0.00 76 1020.8
20260901185516 65 270 3.0 8.0 0.00 0.00 0.00 75 1021.0
20260901184517 65 270 3.0 7.0 0.00 0.00 0.00 75 1020.8
20260901183518 65 248 3.0 7.0 0.00 0.00 0.00 74 1020.4
20260901182517 66 248 4.0 10.0 0.00 0.00 0.00 73 1020.4
20260901181516 66 248 4.0 10.0 0.00 0.00 0.00 72 1020.5
20260901180516 66 225 4.0 7.0 0.00 0.00 0.00 70 1020.4
20260901175516 67 225 4.0 13.0 0.00 0.00 0.00 70 1020.4
20260901174517 67 225 2.0 7.0 0.00 0.00 0.00 72 1020.3
20260901173518 67 270 2.0 7.0 0.00 0.00 0.00 72 1020.5
20260901172517 67 270 3.0 7.0 0.00 0.00 0.00 71 1020.6
20260901171520 67 270 3.0 7.0 0.00 0.00 0.00 70 1020.2
20260901170516 67 270 3.0 7.0 0.00 0.00 0.00 70 1020.3
20260901165516 67 270 2.0 4.0 0.00 0.00 0.00 70 1020.3
20260901164517 67 293 5.0 10.0 0.00 0.00 0.00 70 1020.4
20260901163516 68 270 4.0 10.0 0.00 0.00 0.00 68 1020.5
20260901162536 68 270 5.0 9.0 0.00 0.00 0.00 65 1020.3
20260901161516 69 293 4.0 9.0 0.00 0.00 0.00 63 1020.2
20260901160516 69 270 3.0 7.0 0.00 0.00 0.00 63 1020.3
20260901155516 70 270 3.0 8.0 0.00 0.00 0.00 62 1020.3
20260901154516 70 248 4.0 10.0 0.00 0.00 0.00 61 1020.3
20260901153516 70 225 5.0 12.0 0.00 0.00 0.00 61 1020.2
20260901152516 70 270 4.0 10.0 0.00 0.00 0.00 61 1020.3
20260901151518 71 270 5.0 12.0 0.00 0.00 0.00 59 1020.3
20260901150516 71 270 4.0 10.0 0.00 0.00 0.00 59 1020.5
20260901145516 71 248 4.0 13.0 0.00 0.00 0.00 58 1020.4
20260901144516 71 270 4.0 8.0 0.00 0.00 0.00 61 1020.5
20260901143516 71 270 4.0 13.0 0.00 0.00 0.00 59 1020.6
20260901142516 71 225 6.0 14.0 0.00 0.00 0.00 57 1020.6
20260901141516 71 270 5.0 11.0 0.00 0.00 0.00 58 1020.5
20260901140537 71 270 4.0 10.0 0.00 0.00 0.00 57 1020.5
20260901135518 72 203 5.0 11.0 0.00 0.00 0.00 56 1020.6
20260901134518 71 248 4.0 10.0 0.00 0.00 0.00 58 1020.5
20260901133518 69 225 5.0 13.0 0.00 0.00 0.00 58 1020.6
20260901132517 70 225 3.0 8.0 0.00 0.00 0.00 60 1020.7
20260901131517 70 270 4.0 10.0 0.00 0.00 0.00 59 1020.9
20260901130516 70 293 4.0 8.0 0.00 0.00 0.00 57 1020.8
20260901125539 70 225 4.0 9.0 0.00 0.00 0.00 57 1020.8
20260901124537 71 270 5.0 10.0 0.00 0.00 0.00 57 1021.0
20260901123516 71 225 6.0 20.0 0.00 0.00 0.00 56 1020.9
20260901122517 71 270 5.0 10.0 0.00 0.00 0.00 57 1021.1
20260901121516 69 248 4.0 12.0 0.00 0.00 0.00 59 1021.1
20260901120517 70 225 6.0 14.0 0.00 0.00 0.00 58 1021.1
20260901115516 70 270 4.0 10.0 0.00 0.03 0.00 57 1021.2
20260901114516 69 270 4.0 8.0 0.00 0.03 0.00 58 1020.9
20260901113516 70 293 3.0 8.0 0.00 0.03 0.00 58 1020.8
20260901112516 70 225 6.0 17.0 0.00 0.03 0.00 56 1021.0
20260901111516 71 248 5.0 13.0 0.00 0.03 0.00 58 1021.1
20260901110516 70 270 4.0 8.0 0.00 0.03 0.00 60 1021.1
20260901105516 71 248 5.0 10.0 0.00 0.03 0.00 58 1021.5
20260901104515 70 225 5.0 11.0 0.00 0.03 0.00 60 1021.4
20260901103558 70 248 6.0 16.0 0.00 0.03 0.00 62 1021.4
20260901102515 70 203 7.0 16.0 0.00 0.03 0.00 64 1021.4
20260901101517 70 248 4.0 8.0 0.00 0.03 0.00 65 1021.4
20260901100517 70 248 5.0 12.0 0.00 0.03 0.00 65 1021.6
20260901095515 69 270 4.0 10.0 0.00 0.03 0.00 68 1021.6
20260901094517 69 225 4.0 11.0 0.00 0.03 0.00 65 1021.7
20260901093556 68 225 4.0 9.0 0.00 0.03 0.00 72 1021.7
20260901092535 68 270 4.0 9.0 0.00 0.03 0.00 71 1021.7
20260901091516 68 270 3.0 9.0 0.00 0.03 0.00 70 1021.7
20260901090515 66 203 3.0 9.0 0.00 0.03 0.00 75 1021.7
20260901085515 66 203 4.0 10.0 0.00 0.03 0.00 76 1021.9
20260901084515 65 203 5.0 11.0 0.00 0.03 0.00 77 1021.9
20260901083515 64 180 4.0 13.0 0.00 0.03 0.00 79 1021.7
20260901082515 63 203 3.0 7.0 0.00 0.03 0.00 81 1021.7
20260901081515 62 203 2.0 7.0 0.00 0.03 0.00 82 1021.7
20260901080535 61 203 3.0 7.0 0.00 0.03 0.00 83 1021.7
20260901075515 61 203 5.0 9.0 0.00 0.03 0.00 83 1021.6
20260901074515 60 203 3.0 8.0 0.00 0.03 0.00 85 1021.6
20260901073537 59 203 6.0 10.0 0.00 0.03 0.00 85 1021.7
20260901072517 58 203 3.0 6.0 0.00 0.03 0.00 87 1021.5